(144) Vibilia
ephemeris date magn radius delta ra dec elong phase
Today11 May 202513.83.224 AU2.836 AU10h30m+15°13'103.4°17.7°
Opposition5 May 202612.33.110 AU2.103 AU14h56m-12°56'176.2°1.2°
(144) Vibilia - 2025-05-11
astro.vanbuitenen.nl


 
-1 year
-1 month
-1 day
Now
+1 day
+1 month
+1 year

The interactive orbit chart above shows the body's path through the solar system and its position at the given date. Green and blue lines are shown perpendicular to the ecliptic plane: Green if the path is above the ecliptic plane, blue if it is below. (Left-click and drag to rotate the view; Right-click and drag to move the view; Use scroll wheel to zoom in our out.)

The orbital elements of Vibilia are:

            e (Eccentricity)                : 0.2357376
            a (Semimajor axis)              : 2.6531771
            i (Inclination)                 : 4.81608
            Ω (Longitude of ascending node) : 76.16224
            ω (Argument of perihelion)      : 294.44807
            M (Mean anomaly)                : 148.91831
            Epoch                           : 2025 May 05

            L (Longitude of perihelion)     : 10.68675
            B (Latitude of perihelion)      : -4.38337
            P (Orbital period in years)     : 4.32            
        

The light curve chart below shows the estimated development of the minor planet's magnitude.


The all-sky chart below shows the path of the minor planet over the same period as the light curve. The current position is marked yellow.





The following chart shows the path of the minor planet in the next few days. The field of view is optimized for (~10x50) binoculars and finderscopes. A more printer-friendly version of the same chart can be found below.




Ephemerides:
Date       Time       RA (2000)    DEC (2000)    delta   radius  elong  phase   PA    magn
2025-05-11 00:00 UT   10 30 37.2   +15 13 27     2.836    3.224  103.4   17.7   113   13.8 
2025-05-11 16:43 UT   10 30 49.0   +15 11 03     2.846    3.224  102.8   17.8   113   13.8 
2025-05-12 00:00 UT   10 30 54.3   +15 09 60     2.851    3.225  102.6   17.8   113   13.8 
2025-05-13 00:00 UT   10 31 12.5   +15 06 27     2.865    3.225  101.7   17.9   113   13.8 
2025-05-14 00:00 UT   10 31 31.8   +15 02 48     2.880    3.226  100.8   17.9   113   13.9 
2025-05-15 00:00 UT   10 31 52.1   +14 59 04     2.895    3.227  100.0   18.0   113   13.9 
2025-05-16 00:00 UT   10 32 13.4   +14 55 14     2.910    3.228   99.1   18.0   113   13.9 
2025-05-17 00:00 UT   10 32 35.7   +14 51 20     2.925    3.229   98.2   18.1   113   13.9 
2025-05-18 00:00 UT   10 32 59.0   +14 47 20     2.939    3.229   97.4   18.1   112   13.9 
2025-05-19 00:00 UT   10 33 23.3   +14 43 15     2.954    3.230   96.6   18.1   112   13.9 
2025-05-20 00:00 UT   10 33 48.5   +14 39 05     2.969    3.231   95.7   18.2   112   13.9 
2025-05-21 00:00 UT   10 34 14.8   +14 34 50     2.984    3.232   94.9   18.2   112   13.9 
2025-05-22 00:00 UT   10 34 41.9   +14 30 30     2.999    3.233   94.1   18.2   112   14.0 
2025-05-23 00:00 UT   10 35 10.0   +14 26 05     3.014    3.233   93.2   18.2   112   14.0 
2025-05-24 00:00 UT   10 35 39.0   +14 21 35     3.029    3.234   92.4   18.2   112   14.0 
2025-05-25 00:00 UT   10 36 09.0   +14 17 01     3.044    3.235   91.6   18.2   112   14.0 
2025-05-26 00:00 UT   10 36 39.8   +14 12 22     3.059    3.236   90.8   18.2   112   14.0 
2025-05-27 00:00 UT   10 37 11.5   +14 07 38     3.074    3.236   90.0   18.2   112   14.0 
2025-05-28 00:00 UT   10 37 44.0   +14 02 50     3.089    3.237   89.2   18.2   112   14.0 
2025-05-29 00:00 UT   10 38 17.5   +13 57 57     3.104    3.238   88.4   18.2   112   14.0 
2025-05-30 00:00 UT   10 38 51.7   +13 53 00     3.119    3.239   87.6   18.2   112   14.0 
2025-05-31 00:00 UT   10 39 26.8   +13 47 59     3.134    3.239   86.8   18.2   112   14.1 
2025-06-01 00:00 UT   10 40 02.7   +13 42 53     3.149    3.240   86.0   18.2   112   14.1 
2025-06-02 00:00 UT   10 40 39.4   +13 37 43     3.164    3.241   85.2   18.2   112   14.1 
2025-06-03 00:00 UT   10 41 16.8   +13 32 29     3.179    3.241   84.4   18.1   112   14.1 
2025-06-04 00:00 UT   10 41 55.1   +13 27 11     3.194    3.242   83.6   18.1   112   14.1 
2025-06-05 00:00 UT   10 42 34.1   +13 21 50     3.208    3.243   82.9   18.1   112   14.1 
2025-06-06 00:00 UT   10 43 13.8   +13 16 24     3.223    3.243   82.1   18.1   111   14.1 
2025-06-07 00:00 UT   10 43 54.2   +13 10 54     3.238    3.244   81.3   18.0   111   14.1 
2025-06-08 00:00 UT   10 44 35.4   +13 05 21     3.253    3.245   80.6   18.0   111   14.1 
2025-06-09 00:00 UT   10 45 17.3   +12 59 44     3.267    3.245   79.8   17.9   111   14.1 
2025-06-10 00:00 UT   10 45 59.8   +12 54 03     3.282    3.246   79.0   17.9   111   14.1 


    Terminology:
            
    delta:  distance between minor planet and earth in AU
    radius: distance between minor planet and sun in AU
    magn:   magnitude (brightness) estimate    
    ra:     right ascension in hours (24h = 360deg)
    dec:    declination in degrees
    elong:  elongation in degrees (angle sun-earth-minor planet)    
    phase:  phase angle in degrees (angle sun-minor planet-earth)        
    AU:     Astronomical Unit (mean distance between earth and sun: 149597870.7 km
    

Orbital elements provided by the MPC (Minor Planet Center).
Calculations by a modified version of AAPlus, a C# implementation of the AA+ project by PJ Naughter from the algorithms presented in the book "Astronomical Algorithms" by Jean Meeus.
NGC2000 dso catalog and star labels from VizieR as provided by the Strasbourg astronomical Data Center.
Tycho2 catalog from the ESO archive.